QPF
0.00 0.00 0.00 0.00 0.01 0.01 0.00 0.00 0.00 0.00 0.00 0.00 0.00 0.00 0.00 0.00 0.00 0.00 0.00 0.00 0.00 0.00 0.00 0.01 0.02 0.03 0.04 0.03 0.02 0.02 0.02 0.01 0.01 0.02 0.02 0.02 0.02 0.04 0.04 0.04 0.03 0.03 0.04 0.05 0.04 0.04 0.04 0.04 0.03
0.00 0.00 0.00 0.00 0.00 0.00 0.00 0.00 0.00 0.00 0.00 0.00 0.00 0.00 0.00 0.00 0.00 0.00 0.00 0.00 0.00 0.00 0.00 0.01 0.01 0.02 0.02 0.02 0.02 0.02 0.01 0.01 0.01 0.01 0.02 0.02 0.02 0.03 0.04 0.04 0.04 0.04 0.05 0.04 0.04 0.03 0.05 0.04 0.02
0.00 0.00 0.00 0.00 0.00 0.00 0.00 0.00 0.00 0.00 0.00 0.00 0.00 0.00 0.00 0.00 0.00 0.00 0.00 0.00 0.01 0.01 0.01 0.01 0.02 0.03 0.04 0.03 0.03 0.02 0.01 0.01 0.01 0.02 0.03 0.02 0.02 0.04 0.05 0.05 0.04 0.04 0.05 0.05 0.04 0.03 0.04 0.02 0.02
0.00 0.00 0.00 0.00 0.00 0.00 0.00 0.00 0.00 0.00 0.00 0.00 0.00 0.00 0.00 0.00 0.00 0.00 0.00 0.00 0.01 0.02 0.02 0.03 0.02 0.03 0.04 0.05 0.05 0.05 0.04 0.03 0.01 0.02 0.03 0.04 0.04 0.05 0.07 0.06 0.04 0.05 0.05 0.05 0.05 0.03 0.03 0.02 0.01
0.00 0.00 0.00 0.00 0.00 0.00 0.00 0.00 0.00 0.01 0.01 0.00 0.00 0.00 0.00 0.00 0.00 0.00 0.00 0.00 0.01 0.01 0.02 0.04 0.02 0.03 0.04 0.03 0.03 0.04 0.04 0.03 0.02 0.03 0.03 0.04 0.05 0.07 0.08 0.08 0.06 0.06 0.05 0.05 0.05 0.04 0.02 0.02 0.02
0.00 0.00 0.00 0.00 0.00 0.00 0.00 0.00 0.00 0.00 0.00 0.00 0.00 0.00 0.00 0.00 0.00 0.00 0.00 0.00 0.01 0.00 0.01 0.02 0.02 0.02 0.03 0.03 0.04 0.04 0.04 0.03 0.04 0.04 0.03 0.03 0.04 0.06 0.08 0.10 0.08 0.07 0.07 0.06 0.04 0.03 0.02 0.01 0.01
0.00 0.00 0.00 0.00 0.00 0.00 0.00 0.00 0.00 0.00 0.00 0.00 0.00 0.00 0.00 0.01 0.01 0.00 0.01 0.01 0.01 0.01 0.01 0.02 0.04 0.03 0.02 0.03 0.03 0.03 0.04 0.04 0.04 0.05 0.04 0.03 0.03 0.04 0.06 0.10 0.11 0.09 0.09 0.06 0.03 0.03 0.02 0.02 0.01
0.00 0.00 0.00 0.00 0.00 0.00 0.00 0.00 0.00 0.00 0.00 0.00 0.00 0.00 0.00 0.02 0.03 0.01 0.01 0.01 0.01 0.01 0.02 0.02 0.03 0.04 0.03 0.03 0.03 0.03 0.03 0.03 0.04 0.06 0.05 0.04 0.03 0.03 0.05 0.07 0.12 0.10 0.08 0.07 0.05 0.04 0.03 0.03 0.03
0.00 0.00 0.00 0.00 0.00 0.00 0.00 0.00 0.00 0.00 0.00 0.00 0.00 0.00 0.00 0.02 0.04 0.04 0.02 0.02 0.02 0.02 0.02 0.02 0.02 0.03 0.04 0.04 0.04 0.05 0.04 0.04 0.05 0.05 0.05 0.04 0.04 0.04 0.05 0.06 0.10 0.09 0.06 0.06 0.05 0.04 0.03 0.02 0.02
0.00 0.00 0.00 0.00 0.00 0.00 0.00 0.01 0.00 0.00 0.00 0.00 0.01 0.00 0.01 0.02 0.04 0.05 0.04 0.03 0.02 0.02 0.02 0.01 0.01 0.02 0.03 0.04 0.04 0.05 0.05 0.05 0.05 0.05 0.04 0.03 0.03 0.04 0.06 0.07 0.11 0.08 0.06 0.05 0.04 0.04 0.03 0.02 0.01
0.00 0.00 0.00 0.00 0.00 0.00 0.00 0.01 0.00 0.00 0.00 0.00 0.00 0.01 0.01 0.03 0.04 0.04 0.05 0.05 0.03 0.03 0.02 0.01 0.01 0.01 0.02 0.03 0.04 0.04 0.05 0.04 0.04 0.04 0.03 0.03 0.03 0.04 0.05 0.07 0.08 0.07 0.06 0.04 0.04 0.05 0.05 0.03 0.02
0.00 0.00 0.00 0.00 0.00 0.00 0.00 0.00 0.00 0.00 0.00 0.00 0.00 0.00 0.01 0.03 0.04 0.04 0.05 0.05 0.05 0.05 0.03 0.02 0.01 0.01 0.02 0.03 0.04 0.04 0.04 0.04 0.03 0.03 0.03 0.02 0.03 0.04 0.05 0.06 0.07 0.06 0.03 0.03 0.03 0.04 0.05 0.05 0.04
0.00 0.00 0.00 0.00 0.00 0.00 0.00 0.00 0.01 0.00 0.00 0.00 0.00 0.00 0.01 0.02 0.03 0.04 0.04 0.05 0.05 0.05 0.05 0.03 0.02 0.02 0.03 0.04 0.04 0.04 0.04 0.04 0.04 0.03 0.02 0.02 0.02 0.03 0.04 0.04 0.04 0.04 0.03 0.02 0.02 0.03 0.03 0.04 0.04
0.00 0.00 0.00 0.00 0.00 0.00 0.01 0.00 0.00 0.00 0.00 0.00 0.00 0.00 0.01 0.02 0.02 0.04 0.04 0.04 0.05 0.04 0.05 0.04 0.03 0.04 0.05 0.06 0.07 0.05 0.04 0.04 0.04 0.03 0.02 0.02 0.02 0.03 0.02 0.03 0.03 0.03 0.03 0.02 0.02 0.03 0.03 0.03 0.03
0.00 0.00 0.00 0.00 0.00 0.00 0.00 0.01 0.01 0.01 0.01 0.01 0.00 0.01 0.01 0.02 0.02 0.04 0.04 0.04 0.05 0.04 0.04 0.04 0.05 0.05 0.07 0.07 0.08 0.09 0.07 0.04 0.04 0.03 0.02 0.02 0.02 0.02 0.01 0.01 0.02 0.03 0.03 0.02 0.02 0.03 0.03 0.03 0.03
0.00 0.00 0.00 0.00 0.00 0.00 0.00 0.01 0.01 0.02 0.01 0.01 0.01 0.01 0.01 0.01 0.03 0.04 0.04 0.05 0.05 0.04 0.03 0.03 0.04 0.05 0.07 0.08 0.08 0.09 0.08 0.07 0.05 0.03 0.03 0.03 0.01 0.01 0.01 0.01 0.01 0.02 0.03 0.03 0.03 0.03 0.03 0.03 0.03
0.00 0.00 0.00 0.00 0.00 0.00 0.00 0.00 0.01 0.01 0.01 0.01 0.01 0.02 0.01 0.02 0.03 0.05 0.06 0.07 0.05 0.04 0.03 0.02 0.03 0.04 0.06 0.08 0.09 0.08 0.07 0.06 0.05 0.04 0.03 0.02 0.02 0.01 0.01 0.01 0.01 0.02 0.02 0.03 0.03 0.02 0.02 0.03 0.03
0.00 0.00 0.00 0.00 0.00 0.00 0.00 0.00 0.00 0.00 0.01 0.01 0.02 0.02 0.01 0.01 0.03 0.04 0.05 0.07 0.05 0.03 0.03 0.03 0.03 0.04 0.04 0.07 0.08 0.09 0.09 0.07 0.05 0.04 0.03 0.03 0.01 0.01 0.01 0.01 0.01 0.01 0.02 0.02 0.03 0.03 0.02 0.03 0.03
0.00 0.00 0.00 0.00 0.00 0.00 0.00 0.00 0.00 0.00 0.01 0.02 0.02 0.01 0.01 0.02 0.03 0.03 0.04 0.05 0.05 0.03 0.03 0.03 0.03 0.04 0.05 0.07 0.09 0.09 0.08 0.07 0.05 0.04 0.03 0.02 0.01 0.01 0.01 0.01 0.01 0.01 0.01 0.01 0.02 0.02 0.03 0.03 0.03
0.00 0.00 0.00 0.00 0.00 0.00 0.00 0.00 0.00 0.01 0.01 0.01 0.01 0.00 0.01 0.02 0.03 0.03 0.03 0.03 0.03 0.03 0.03 0.03 0.02 0.03 0.04 0.07 0.08 0.07 0.06 0.04 0.03 0.04 0.04 0.04 0.02 0.01 0.01 0.01 0.01 0.02 0.01 0.02 0.01 0.01 0.02 0.03 0.03
0.00 0.00 0.00 0.00 0.00 0.00 0.00 0.01 0.00 0.00 0.00 0.00 0.00 0.00 0.00 0.01 0.02 0.02 0.03 0.03 0.03 0.02 0.02 0.03 0.03 0.04 0.04 0.06 0.08 0.07 0.06 0.04 0.04 0.04 0.06 0.06 0.03 0.02 0.01 0.01 0.02 0.02 0.02 0.02 0.02 0.01 0.01 0.02 0.03
0.00 0.00 0.00 0.00 0.00 0.00 0.00 0.01 0.00 0.00 0.00 0.00 0.00 0.00 0.00 0.00 0.01 0.01 0.02 0.02 0.01 0.01 0.01 0.03 0.04 0.03 0.05 0.06 0.07 0.08 0.06 0.05 0.05 0.05 0.05 0.06 0.04 0.02 0.02 0.01 0.02 0.02 0.02 0.03 0.02 0.02 0.02 0.02 0.02
0.00 0.00 0.00 0.00 0.00 0.00 0.00 0.01 0.01 0.00 0.00 0.00 0.00 0.00 0.00 0.00 0.00 0.00 0.00 0.00 0.01 0.01 0.01 0.01 0.02 0.03 0.04 0.06 0.06 0.06 0.07 0.06 0.05 0.05 0.05 0.05 0.05 0.03 0.02 0.02 0.02 0.02 0.02 0.02 0.02 0.02 0.02 0.02 0.02
0.00 0.01 0.00 0.00 0.01 0.01 0.00 0.00 0.01 0.00 0.00 0.00 0.00 0.00 0.00 0.00 0.00 0.00 0.00 0.00 0.00 0.01 0.01 0.01 0.01 0.02 0.03 0.05 0.06 0.04 0.05 0.07 0.07 0.06 0.05 0.05 0.05 0.05 0.04 0.03 0.02 0.02 0.03 0.03 0.02 0.02 0.02 0.02 0.02
0.00 0.01 0.01 0.01 0.01 0.01 0.00 0.00 0.01 0.01 0.00 0.00 0.00 0.00 0.00 0.00 0.00 0.00 0.00 0.00 0.00 0.01 0.01 0.01 0.01 0.02 0.03 0.04 0.06 0.03 0.04 0.04 0.06 0.07 0.06 0.05 0.05 0.05 0.06 0.05 0.04 0.03 0.03 0.03 0.03 0.02 0.02 0.02 0.02
0.00 0.00 0.01 0.01 0.01 0.00 0.00 0.00 0.01 0.00 0.00 0.00 0.00 0.00 0.00 0.00 0.00 0.00 0.00 0.00 0.00 0.01 0.01 0.01 0.01 0.02 0.03 0.04 0.05 0.03 0.02 0.03 0.04 0.06 0.07 0.06 0.06 0.05 0.05 0.05 0.06 0.05 0.04 0.04 0.04 0.03 0.03 0.03 0.03
0.00 0.00 0.00 0.01 0.01 0.01 0.01 0.01 0.01 0.00 0.00 0.00 0.00 0.00 0.00 0.00 0.00 0.00 0.00 0.00 0.00 0.00 0.01 0.01 0.01 0.02 0.02 0.03 0.04 0.03 0.02 0.02 0.03 0.04 0.05 0.07 0.07 0.07 0.05 0.05 0.06 0.07 0.06 0.05 0.05 0.04 0.03 0.03 0.03
0.01 0.01 0.01 0.02 0.02 0.01 0.01 0.00 0.01 0.01 0.00 0.00 0.00 0.00 0.00 0.00 0.00 0.00 0.00 0.00 0.01 0.01 0.01 0.01 0.01 0.02 0.02 0.02 0.03 0.03 0.02 0.02 0.03 0.03 0.04 0.05 0.06 0.08 0.08 0.07 0.07 0.06 0.07 0.07 0.06 0.04 0.03 0.03 0.03
0.01 0.01 0.01 0.02 0.01 0.01 0.01 0.01 0.01 0.01 0.01 0.01 0.00 0.00 0.00 0.00 0.00 0.00 0.00 0.00 0.01 0.01 0.01 0.01 0.01 0.02 0.02 0.02 0.03 0.02 0.02 0.02 0.02 0.03 0.03 0.03 0.04 0.05 0.06 0.07 0.08 0.07 0.06 0.07 0.07 0.06 0.04 0.04 0.03
0.01 0.02 0.02 0.02 0.02 0.01 0.01 0.01 0.00 0.01 0.01 0.01 0.01 0.01 0.00 0.00 0.00 0.00 0.01 0.01 0.01 0.01 0.01 0.01 0.01 0.01 0.02 0.02 0.02 0.01 0.02 0.02 0.02 0.02 0.02 0.02 0.03 0.03 0.04 0.05 0.07 0.07 0.06 0.06 0.06 0.06 0.05 0.04 0.03
MSLP
1015.47 1015.49 1015.52 1015.54 1015.52 1015.45 1015.33 1015.17 1015.00 1014.85 1014.74 1014.69 1014.70 1014.76 1014.84 1014.93 1015.00 1015.07 1015.12 1015.20 1015.33 1015.52 1015.79 1016.14 1016.53 1016.94 1017.33 1017.66 1017.91 1018.08 1018.18 1018.25 1018.30 1018.38 1018.48 1018.62 1018.77 1018.91 1019.03 1019.09 1019.10 1019.07 1019.01 1018.95 1018.91 1018.90 1018.92 1018.96 1019.00
1015.51 1015.52 1015.54 1015.55 1015.52 1015.44 1015.32 1015.15 1014.98 1014.82 1014.70 1014.63 1014.62 1014.65 1014.70 1014.77 1014.83 1014.88 1014.94 1015.03 1015.17 1015.39 1015.68 1016.04 1016.46 1016.88 1017.28 1017.62 1017.89 1018.09 1018.22 1018.32 1018.41 1018.52 1018.65 1018.81 1018.97 1019.12 1019.23 1019.28 1019.28 1019.25 1019.21 1019.17 1019.17 1019.21 1019.28 1019.37 1019.44
1015.55 1015.54 1015.55 1015.54 1015.50 1015.41 1015.27 1015.10 1014.92 1014.76 1014.63 1014.55 1014.53 1014.55 1014.60 1014.66 1014.73 1014.80 1014.89 1015.00 1015.16 1015.38 1015.67 1016.03 1016.43 1016.84 1017.22 1017.56 1017.83 1018.04 1018.21 1018.35 1018.50 1018.66 1018.84 1019.03 1019.21 1019.37 1019.47 1019.52 1019.52 1019.48 1019.45 1019.43 1019.46 1019.53 1019.64 1019.76 1019.85
1015.60 1015.58 1015.56 1015.52 1015.46 1015.35 1015.21 1015.04 1014.86 1014.69 1014.57 1014.49 1014.46 1014.49 1014.55 1014.64 1014.73 1014.83 1014.95 1015.09 1015.27 1015.50 1015.78 1016.11 1016.47 1016.83 1017.18 1017.48 1017.75 1017.97 1018.16 1018.36 1018.56 1018.78 1019.01 1019.25 1019.47 1019.64 1019.76 1019.81 1019.81 1019.78 1019.75 1019.75 1019.79 1019.89 1020.01 1020.14 1020.24
1015.65 1015.61 1015.56 1015.50 1015.41 1015.29 1015.15 1014.97 1014.80 1014.64 1014.52 1014.45 1014.43 1014.47 1014.56 1014.67 1014.80 1014.95 1015.11 1015.28 1015.48 1015.71 1015.97 1016.26 1016.56 1016.86 1017.15 1017.41 1017.65 1017.88 1018.10 1018.34 1018.60 1018.88 1019.17 1019.47 1019.73 1019.94 1020.08 1020.15 1020.16 1020.14 1020.13 1020.13 1020.18 1020.28 1020.40 1020.53 1020.63
1015.70 1015.63 1015.56 1015.47 1015.36 1015.23 1015.08 1014.91 1014.75 1014.60 1014.49 1014.43 1014.43 1014.49 1014.60 1014.75 1014.92 1015.11 1015.31 1015.51 1015.72 1015.95 1016.18 1016.42 1016.67 1016.90 1017.13 1017.36 1017.58 1017.80 1018.04 1018.32 1018.63 1018.96 1019.32 1019.66 1019.97 1020.22 1020.40 1020.50 1020.54 1020.55 1020.54 1020.56 1020.61 1020.69 1020.80 1020.92 1021.00
1015.75 1015.65 1015.55 1015.43 1015.30 1015.16 1015.01 1014.84 1014.69 1014.56 1014.47 1014.42 1014.44 1014.51 1014.64 1014.81 1015.01 1015.24 1015.47 1015.70 1015.92 1016.14 1016.35 1016.55 1016.75 1016.94 1017.12 1017.31 1017.52 1017.75 1018.01 1018.32 1018.67 1019.05 1019.44 1019.83 1020.18 1020.47 1020.69 1020.83 1020.91 1020.95 1020.97 1020.99 1021.03 1021.10 1021.19 1021.28 1021.36
1015.79 1015.66 1015.52 1015.38 1015.23 1015.07 1014.92 1014.76 1014.62 1014.50 1014.42 1014.39 1014.41 1014.49 1014.63 1014.82 1015.05 1015.29 1015.54 1015.79 1016.02 1016.23 1016.42 1016.60 1016.77 1016.93 1017.10 1017.29 1017.50 1017.74 1018.03 1018.36 1018.74 1019.15 1019.57 1019.98 1020.35 1020.67 1020.93 1021.11 1021.23 1021.30 1021.34 1021.37 1021.41 1021.47 1021.54 1021.61 1021.67
1015.85 1015.68 1015.50 1015.32 1015.15 1014.97 1014.81 1014.65 1014.52 1014.40 1014.33 1014.30 1014.33 1014.41 1014.56 1014.75 1014.99 1015.24 1015.50 1015.76 1015.99 1016.20 1016.39 1016.56 1016.72 1016.88 1017.06 1017.27 1017.51 1017.79 1018.10 1018.46 1018.86 1019.27 1019.70 1020.11 1020.49 1020.82 1021.10 1021.32 1021.47 1021.57 1021.64 1021.68 1021.72 1021.77 1021.83 1021.89 1021.95
1015.93 1015.72 1015.50 1015.28 1015.07 1014.87 1014.69 1014.52 1014.38 1014.27 1014.19 1014.16 1014.19 1014.27 1014.41 1014.60 1014.84 1015.10 1015.36 1015.62 1015.85 1016.06 1016.25 1016.43 1016.61 1016.80 1017.02 1017.27 1017.56 1017.88 1018.24 1018.62 1019.02 1019.43 1019.84 1020.23 1020.60 1020.93 1021.21 1021.44 1021.62 1021.75 1021.84 1021.91 1021.95 1022.00 1022.06 1022.13 1022.21
1016.03 1015.78 1015.52 1015.26 1015.01 1014.78 1014.58 1014.40 1014.24 1014.12 1014.03 1013.99 1014.01 1014.08 1014.22 1014.41 1014.64 1014.90 1015.16 1015.41 1015.64 1015.86 1016.05 1016.25 1016.46 1016.70 1016.97 1017.29 1017.64 1018.02 1018.42 1018.83 1019.23 1019.63 1020.01 1020.37 1020.70 1021.01 1021.28 1021.52 1021.71 1021.86 1021.98 1022.06 1022.12 1022.19 1022.26 1022.35 1022.46
1016.14 1015.86 1015.57 1015.27 1014.99 1014.73 1014.50 1014.29 1014.11 1013.97 1013.87 1013.82 1013.83 1013.90 1014.03 1014.22 1014.45 1014.71 1014.97 1015.21 1015.44 1015.66 1015.87 1016.08 1016.32 1016.61 1016.94 1017.32 1017.74 1018.18 1018.63 1019.07 1019.48 1019.86 1020.20 1020.52 1020.82 1021.09 1021.34 1021.57 1021.77 1021.94 1022.07 1022.18 1022.27 1022.36 1022.46 1022.59 1022.75
1016.26 1015.96 1015.64 1015.32 1015.02 1014.73 1014.47 1014.23 1014.03 1013.86 1013.74 1013.68 1013.68 1013.75 1013.88 1014.08 1014.32 1014.58 1014.84 1015.09 1015.31 1015.53 1015.74 1015.96 1016.23 1016.56 1016.94 1017.38 1017.86 1018.36 1018.86 1019.32 1019.74 1020.11 1020.43 1020.71 1020.96 1021.20 1021.43 1021.65 1021.85 1022.03 1022.18 1022.31 1022.43 1022.56 1022.70 1022.88 1023.10
1016.37 1016.06 1015.73 1015.40 1015.08 1014.77 1014.48 1014.22 1013.99 1013.79 1013.65 1013.58 1013.57 1013.65 1013.79 1014.01 1014.26 1014.54 1014.81 1015.07 1015.29 1015.50 1015.71 1015.94 1016.22 1016.56 1016.98 1017.46 1017.99 1018.53 1019.07 1019.56 1020.00 1020.36 1020.67 1020.93 1021.15 1021.36 1021.57 1021.78 1021.98 1022.16 1022.34 1022.50 1022.65 1022.82 1023.01 1023.25 1023.54
1016.44 1016.14 1015.82 1015.49 1015.16 1014.83 1014.52 1014.23 1013.96 1013.74 1013.58 1013.48 1013.48 1013.56 1013.73 1013.97 1014.26 1014.57 1014.87 1015.14 1015.37 1015.58 1015.78 1016.00 1016.28 1016.62 1017.05 1017.56 1018.12 1018.70 1019.27 1019.79 1020.25 1020.62 1020.93 1021.18 1021.39 1021.59 1021.78 1021.98 1022.18 1022.38 1022.57 1022.75 1022.94 1023.14 1023.38 1023.68 1024.03
1016.49 1016.20 1015.88 1015.56 1015.22 1014.88 1014.54 1014.21 1013.90 1013.64 1013.44 1013.33 1013.32 1013.42 1013.62 1013.90 1014.24 1014.60 1014.94 1015.24 1015.50 1015.72 1015.92 1016.13 1016.39 1016.73 1017.16 1017.67 1018.25 1018.85 1019.45 1020.00 1020.48 1020.88 1021.21 1021.47 1021.68 1021.88 1022.07 1022.27 1022.47 1022.67 1022.87 1023.07 1023.28 1023.51 1023.79 1024.13 1024.54
1016.51 1016.23 1015.92 1015.59 1015.23 1014.86 1014.48 1014.10 1013.73 1013.42 1013.18 1013.04 1013.02 1013.13 1013.37 1013.71 1014.11 1014.53 1014.94 1015.30 1015.60 1015.85 1016.06 1016.28 1016.54 1016.87 1017.29 1017.80 1018.38 1019.00 1019.62 1020.20 1020.72 1021.15 1021.50 1021.79 1022.02 1022.23 1022.43 1022.62 1022.82 1023.03 1023.23 1023.44 1023.65 1023.91 1024.20 1024.57 1025.02
1016.54 1016.24 1015.92 1015.57 1015.18 1014.75 1014.30 1013.84 1013.40 1013.00 1012.70 1012.52 1012.49 1012.61 1012.89 1013.29 1013.77 1014.29 1014.79 1015.23 1015.60 1015.91 1016.16 1016.40 1016.67 1017.01 1017.42 1017.93 1018.52 1019.15 1019.80 1020.41 1020.96 1021.43 1021.82 1022.14 1022.40 1022.62 1022.83 1023.03 1023.23 1023.43 1023.63 1023.83 1024.05 1024.29 1024.59 1024.96 1025.42
1016.57 1016.26 1015.91 1015.51 1015.05 1014.54 1013.99 1013.42 1012.86 1012.36 1011.98 1011.74 1011.68 1011.82 1012.14 1012.62 1013.19 1013.82 1014.43 1014.98 1015.46 1015.85 1016.17 1016.46 1016.77 1017.12 1017.56 1018.08 1018.68 1019.33 1019.99 1020.63 1021.22 1021.73 1022.16 1022.51 1022.80 1023.05 1023.27 1023.48 1023.68 1023.87 1024.06 1024.24 1024.44 1024.66 1024.94 1025.28 1025.72
1016.64 1016.30 1015.89 1015.42 1014.87 1014.24 1013.56 1012.85 1012.15 1011.53 1011.04 1010.74 1010.65 1010.79 1011.16 1011.71 1012.39 1013.14 1013.88 1014.56 1015.16 1015.66 1016.08 1016.45 1016.81 1017.21 1017.68 1018.23 1018.85 1019.52 1020.21 1020.88 1021.50 1022.05 1022.51 1022.90 1023.22 1023.50 1023.74 1023.95 1024.15 1024.34 1024.51 1024.67 1024.84 1025.03 1025.26 1025.56 1025.94
1016.73 1016.35 1015.89 1015.33 1014.67 1013.90 1013.07 1012.20 1011.35 1010.59 1009.99 1009.61 1009.49 1009.64 1010.05 1010.69 1011.47 1012.34 1013.21 1014.04 1014.76 1015.39 1015.91 1016.38 1016.82 1017.28 1017.79 1018.38 1019.03 1019.73 1020.44 1021.14 1021.79 1022.37 1022.87 1023.30 1023.65 1023.95 1024.21 1024.44 1024.65 1024.83 1024.99 1025.14 1025.28 1025.42 1025.60 1025.83 1026.13
1016.84 1016.43 1015.91 1015.27 1014.49 1013.59 1012.61 1011.58 1010.58 1009.69 1008.99 1008.54 1008.40 1008.56 1009.02 1009.72 1010.61 1011.59 1012.58 1013.53 1014.37 1015.11 1015.74 1016.29 1016.81 1017.34 1017.91 1018.53 1019.22 1019.95 1020.69 1021.41 1022.09 1022.70 1023.23 1023.68 1024.07 1024.39 1024.68 1024.94 1025.16 1025.36 1025.53 1025.67 1025.78 1025.89 1026.01 1026.16 1026.38
1016.94 1016.51 1015.96 1015.25 1014.39 1013.38 1012.26 1011.10 1009.98 1008.98 1008.21 1007.72 1007.56 1007.74 1008.25 1009.02 1009.98 1011.05 1012.14 1013.17 1014.11 1014.92 1015.63 1016.25 1016.83 1017.42 1018.03 1018.70 1019.42 1020.17 1020.94 1021.68 1022.38 1023.02 1023.57 1024.05 1024.47 1024.83 1025.16 1025.45 1025.70 1025.93 1026.12 1026.27 1026.38 1026.46 1026.53 1026.62 1026.74
1017.01 1016.60 1016.04 1015.30 1014.38 1013.29 1012.09 1010.85 1009.65 1008.60 1007.78 1007.28 1007.14 1007.35 1007.90 1008.73 1009.75 1010.87 1012.01 1013.09 1014.06 1014.91 1015.65 1016.31 1016.93 1017.54 1018.19 1018.88 1019.63 1020.40 1021.19 1021.96 1022.68 1023.33 1023.91 1024.42 1024.86 1025.26 1025.63 1025.96 1026.27 1026.54 1026.77 1026.95 1027.07 1027.15 1027.20 1027.23 1027.28
1017.03 1016.67 1016.13 1015.40 1014.47 1013.36 1012.13 1010.86 1009.64 1008.58 1007.78 1007.31 1007.21 1007.47 1008.07 1008.93 1009.98 1011.12 1012.26 1013.32 1014.28 1015.12 1015.85 1016.50 1017.12 1017.74 1018.40 1019.11 1019.87 1020.66 1021.46 1022.25 1022.98 1023.65 1024.25 1024.78 1025.26 1025.70 1026.10 1026.49 1026.85 1027.17 1027.46 1027.69 1027.85 1027.95 1027.99 1028.00 1028.00
1017.02 1016.72 1016.23 1015.54 1014.64 1013.55 1012.34 1011.10 1009.92 1008.91 1008.18 1007.78 1007.74 1008.07 1008.71 1009.60 1010.65 1011.76 1012.86 1013.87 1014.77 1015.55 1016.23 1016.84 1017.42 1018.02 1018.68 1019.39 1020.15 1020.96 1021.78 1022.57 1023.32 1024.01 1024.62 1025.18 1025.68 1026.15 1026.59 1027.02 1027.43 1027.82 1028.16 1028.45 1028.67 1028.81 1028.88 1028.89 1028.87
1017.00 1016.75 1016.32 1015.68 1014.83 1013.80 1012.65 1011.48 1010.39 1009.48 1008.84 1008.54 1008.60 1008.99 1009.68 1010.59 1011.62 1012.69 1013.71 1014.64 1015.45 1016.14 1016.74 1017.28 1017.82 1018.39 1019.03 1019.74 1020.51 1021.32 1022.15 1022.96 1023.72 1024.42 1025.05 1025.62 1026.14 1026.63 1027.10 1027.57 1028.02 1028.45 1028.85 1029.20 1029.48 1029.68 1029.80 1029.84 1029.84
1016.98 1016.77 1016.38 1015.79 1014.99 1014.02 1012.95 1011.88 1010.89 1010.10 1009.59 1009.41 1009.56 1010.03 1010.77 1011.68 1012.69 1013.70 1014.65 1015.48 1016.19 1016.79 1017.31 1017.79 1018.28 1018.83 1019.45 1020.16 1020.94 1021.76 1022.60 1023.42 1024.20 1024.91 1025.55 1026.13 1026.66 1027.16 1027.64 1028.12 1028.60 1029.06 1029.50 1029.90 1030.23 1030.50 1030.68 1030.78 1030.82
1016.99 1016.78 1016.40 1015.82 1015.05 1014.13 1013.13 1012.14 1011.26 1010.59 1010.20 1010.14 1010.39 1010.94 1011.71 1012.64 1013.62 1014.59 1015.47 1016.23 1016.86 1017.39 1017.85 1018.29 1018.76 1019.30 1019.92 1020.64 1021.43 1022.27 1023.12 1023.96 1024.74 1025.46 1026.11 1026.69 1027.22 1027.72 1028.20 1028.68 1029.16 1029.63 1030.09 1030.52 1030.90 1031.22 1031.47 1031.64 1031.75
1017.01 1016.76 1016.35 1015.75 1014.97 1014.07 1013.11 1012.18 1011.39 1010.82 1010.53 1010.56 1010.89 1011.50 1012.32 1013.26 1014.24 1015.18 1016.02 1016.74 1017.34 1017.85 1018.29 1018.73 1019.21 1019.76 1020.40 1021.14 1021.95 1022.81 1023.68 1024.53 1025.32 1026.05 1026.70 1027.28 1027.81 1028.30 1028.77 1029.24 1029.70 1030.17 1030.63 1031.07 1031.47 1031.83 1032.14 1032.38 1032.55
Thickness
5676 5679 5682 5683 5676 5669 5667 5669 5669 5668 5670 5671 5672 5674 5676 5676 5676 5671 5670 5672 5672 5672 5670 5669 5669 5669 5670 5669 5669 5669 5669 5669 5668 5668 5669 5669 5669 5669 5669 5669 5669 5669 5669 5668 5668 5667 5667 5666 5665
5674 5676 5678 5676 5668 5662 5664 5666 5663 5666 5667 5666 5666 5668 5669 5669 5669 5667 5666 5666 5666 5667 5666 5665 5665 5665 5665 5665 5664 5664 5664 5664 5664 5664 5664 5664 5665 5665 5665 5665 5665 5665 5664 5663 5663 5662 5662 5661 5661
5670 5672 5671 5667 5661 5663 5662 5662 5662 5660 5661 5661 5661 5662 5663 5663 5662 5662 5662 5661 5661 5662 5661 5661 5660 5660 5660 5660 5660 5659 5659 5659 5659 5659 5659 5659 5659 5660 5660 5660 5660 5660 5660 5659 5658 5657 5657 5656 5655
5668 5667 5663 5660 5656 5658 5659 5658 5656 5654 5654 5654 5656 5656 5656 5655 5656 5656 5656 5656 5656 5656 5656 5656 5655 5655 5655 5655 5654 5654 5654 5654 5654 5654 5654 5654 5654 5655 5655 5655 5655 5655 5654 5654 5653 5652 5651 5651 5650
5664 5661 5654 5650 5651 5652 5651 5650 5649 5648 5649 5649 5649 5651 5651 5650 5650 5650 5650 5651 5651 5651 5651 5650 5649 5649 5649 5649 5649 5649 5648 5648 5648 5648 5648 5648 5649 5649 5649 5649 5649 5649 5649 5648 5647 5647 5646 5645 5644
5655 5654 5648 5647 5647 5646 5645 5644 5643 5644 5644 5641 5640 5643 5645 5643 5643 5644 5644 5644 5645 5645 5645 5644 5643 5643 5643 5643 5643 5643 5643 5642 5642 5642 5641 5642 5642 5643 5643 5643 5643 5644 5643 5642 5642 5641 5640 5639 5639
5648 5645 5643 5642 5639 5639 5639 5637 5638 5639 5638 5636 5635 5637 5640 5637 5636 5636 5637 5637 5638 5638 5638 5638 5638 5637 5637 5637 5637 5637 5637 5636 5636 5635 5635 5635 5636 5637 5637 5637 5638 5637 5637 5636 5636 5635 5634 5633 5632
5642 5639 5634 5634 5633 5634 5633 5630 5629 5630 5631 5629 5629 5632 5633 5630 5628 5629 5629 5630 5631 5631 5631 5631 5631 5631 5631 5631 5630 5631 5631 5630 5630 5629 5628 5628 5629 5629 5630 5631 5631 5631 5631 5630 5629 5628 5627 5626 5625
5634 5631 5630 5629 5628 5628 5624 5623 5622 5621 5622 5621 5621 5622 5621 5620 5620 5621 5622 5623 5623 5623 5623 5624 5624 5624 5624 5624 5624 5624 5624 5624 5623 5622 5622 5622 5622 5623 5623 5624 5624 5624 5624 5623 5622 5622 5621 5620 5618
5626 5624 5625 5622 5622 5620 5617 5616 5615 5615 5616 5616 5615 5613 5611 5612 5612 5614 5615 5615 5616 5616 5616 5616 5616 5616 5617 5617 5617 5617 5617 5617 5617 5616 5616 5615 5616 5616 5616 5616 5617 5617 5617 5616 5616 5615 5614 5614 5613
5616 5616 5614 5612 5611 5610 5608 5607 5607 5609 5612 5613 5612 5609 5605 5604 5604 5605 5606 5606 5607 5607 5608 5608 5608 5608 5609 5610 5610 5611 5611 5611 5610 5610 5609 5609 5609 5609 5609 5609 5609 5609 5609 5609 5609 5608 5608 5607 5606
5604 5602 5602 5603 5600 5599 5601 5600 5599 5600 5605 5604 5603 5601 5598 5597 5597 5597 5598 5598 5598 5599 5599 5600 5601 5601 5602 5603 5603 5603 5603 5604 5604 5603 5603 5603 5603 5602 5602 5602 5602 5601 5601 5601 5601 5601 5600 5599 5599
5596 5593 5591 5590 5589 5590 5591 5592 5593 5595 5594 5593 5593 5592 5592 5591 5591 5590 5590 5590 5591 5591 5592 5592 5593 5594 5594 5595 5596 5596 5597 5597 5597 5596 5596 5596 5596 5595 5594 5593 5593 5594 5594 5594 5593 5593 5593 5592 5591
5587 5585 5584 5584 5583 5582 5583 5586 5585 5591 5586 5584 5584 5585 5585 5584 5584 5584 5583 5584 5584 5584 5585 5585 5585 5586 5587 5588 5589 5589 5589 5590 5590 5590 5589 5589 5589 5588 5587 5586 5585 5585 5585 5585 5585 5585 5585 5584 5583
5577 5578 5581 5579 5577 5577 5577 5584 5584 5586 5579 5578 5578 5578 5577 5577 5577 5576 5577 5577 5577 5578 5579 5578 5578 5578 5579 5580 5581 5582 5582 5582 5583 5582 5582 5581 5581 5580 5580 5579 5578 5577 5577 5577 5577 5576 5576 5575 5574
5573 5577 5579 5576 5570 5569 5570 5585 5585 5577 5573 5574 5573 5572 5571 5570 5569 5568 5568 5569 5569 5571 5571 5570 5570 5570 5572 5573 5574 5575 5575 5575 5575 5575 5574 5573 5572 5572 5571 5571 5570 5569 5568 5568 5568 5568 5568 5567 5566
5570 5572 5573 5570 5563 5561 5562 5575 5575 5567 5567 5568 5567 5566 5565 5564 5562 5561 5560 5561 5561 5562 5563 5563 5563 5563 5565 5565 5566 5567 5567 5567 5567 5566 5565 5564 5564 5563 5563 5562 5561 5561 5560 5559 5559 5559 5559 5558 5557
5564 5563 5562 5562 5556 5551 5555 5564 5568 5562 5559 5562 5562 5560 5558 5557 5556 5553 5552 5552 5552 5553 5555 5555 5555 5555 5556 5557 5558 5558 5559 5559 5559 5558 5557 5556 5555 5555 5554 5553 5552 5552 5552 5551 5550 5549 5548 5548 5547
5551 5550 5553 5553 5543 5541 5550 5557 5563 5560 5555 5556 5556 5554 5552 5550 5547 5545 5544 5543 5543 5544 5545 5546 5547 5548 5548 5549 5550 5551 5552 5550 5550 5549 5548 5547 5547 5546 5546 5545 5544 5543 5543 5542 5541 5540 5539 5538 5537
5539 5541 5545 5541 5532 5531 5539 5548 5557 5555 5550 5550 5550 5548 5544 5543 5540 5538 5536 5535 5535 5535 5536 5537 5538 5539 5540 5540 5540 5541 5541 5541 5540 5539 5538 5538 5537 5537 5536 5536 5536 5535 5533 5532 5531 5530 5530 5528 5527
5531 5533 5534 5528 5522 5521 5524 5549 5556 5551 5545 5542 5540 5538 5536 5534 5532 5529 5527 5527 5527 5527 5528 5528 5530 5530 5531 5531 5531 5531 5531 5531 5531 5530 5529 5528 5527 5527 5527 5527 5527 5525 5525 5524 5523 5522 5521 5520 5518
5524 5520 5514 5510 5513 5522 5516 5535 5555 5545 5539 5537 5534 5530 5528 5525 5522 5520 5518 5518 5518 5517 5518 5520 5520 5520 5521 5521 5522 5523 5525 5524 5522 5521 5519 5518 5517 5517 5517 5517 5517 5516 5515 5514 5513 5512 5512 5511 5510
5510 5502 5500 5499 5500 5502 5506 5509 5544 5534 5535 5536 5528 5522 5519 5514 5512 5509 5508 5507 5507 5506 5507 5509 5510 5510 5510 5511 5512 5513 5513 5512 5511 5510 5508 5507 5507 5507 5507 5506 5506 5505 5504 5503 5502 5501 5501 5500 5499
5491 5490 5488 5487 5490 5494 5505 5505 5533 5534 5530 5528 5520 5513 5508 5503 5500 5497 5495 5494 5494 5494 5495 5497 5498 5499 5500 5500 5501 5502 5501 5501 5500 5500 5499 5498 5496 5496 5495 5495 5495 5495 5494 5493 5492 5491 5490 5489 5487
5483 5488 5492 5494 5492 5503 5491 5494 5519 5522 5513 5511 5507 5501 5496 5491 5487 5485 5483 5483 5483 5482 5483 5485 5487 5488 5489 5489 5490 5490 5490 5490 5490 5490 5489 5488 5486 5486 5484 5484 5484 5484 5483 5482 5480 5479 5478 5477 5476
5478 5483 5486 5489 5494 5501 5478 5490 5514 5501 5494 5490 5488 5486 5482 5479 5476 5474 5472 5472 5471 5471 5471 5473 5475 5476 5477 5478 5479 5479 5478 5478 5478 5478 5477 5477 5476 5475 5474 5474 5473 5473 5472 5471 5469 5468 5467 5465 5464
5467 5470 5470 5467 5450 5459 5489 5493 5495 5487 5484 5479 5476 5474 5471 5468 5465 5463 5462 5461 5461 5461 5461 5462 5463 5464 5465 5465 5466 5467 5466 5466 5465 5465 5465 5465 5465 5464 5463 5463 5462 5461 5460 5459 5458 5457 5455 5453 5452
5456 5458 5454 5457 5462 5475 5486 5487 5502 5489 5483 5475 5468 5463 5460 5457 5454 5453 5451 5450 5449 5449 5449 5450 5451 5452 5453 5454 5454 5454 5454 5453 5453 5453 5453 5453 5453 5452 5452 5451 5450 5449 5447 5446 5445 5444 5443 5441 5440
5441 5440 5447 5451 5451 5461 5473 5494 5490 5485 5478 5469 5461 5454 5451 5447 5445 5443 5441 5439 5437 5437 5437 5438 5438 5440 5440 5441 5442 5442 5441 5441 5441 5441 5442 5441 5441 5440 5440 5439 5438 5437 5436 5434 5433 5432 5431 5429 5428
5435 5440 5440 5443 5436 5437 5453 5480 5474 5468 5463 5456 5450 5444 5440 5437 5435 5433 5430 5428 5427 5426 5426 5425 5426 5427 5428 5428 5429 5429 5429 5429 5429 5429 5429 5429 5428 5428 5427 5426 5425 5424 5423 5422 5421 5420 5418 5416 5415